Greenville, ME

5:59 AM EDT on March 29, 2017 (GMT -0400)
Greenville

Weather History for KGNR - April, 2013

Change the Weather History Date:

Friday, April 5, 2013

  Actual Average (KMLT) Record (KMLT)
Temperature  
Mean Temperature 37 °F -  
Max Temperature 46 °F 45 °F 68 °F (2010)
Min Temperature 26 °F 28 °F 3 °F (1995)
Degree Days  
Heating Degree Days 28    
Moisture  
Dew Point 20 °F    
Average Humidity 55    
Maximum Humidity 79    
Minimum Humidity 29    
Precipitation  
Precipitation 0.00 in - - ()
Sea Level Pressure  
Sea Level Pressure 29.75 in    
Wind  
Wind Speed 3 mph (NW)    
Max Wind Speed 13 mph    
Max Gust Speed 26 mph    
Averages and records for this station are not official NWS values.
T = Trace of Precipitation, MM = Missing Value Source: NWS Daily Summary

Daily Weather History Graph

Daily Weather History Graph

Search for Another Location

Airport or City:

Trip Planner

Search our weather history database for the weather conditions in past years. The results will help you decide how hot, cold, wet, or windy it might be!

Date:

Astronomy

Apr. 05, 2013 Rise Set
Actual Time 6:10 AM EDT 7:11 PM EDT
Civil Twilight 5:40 AM EDT 7:42 PM EDT
Nautical Twilight 5:04 AM EDT 8:18 PM EDT
Astronomical Twilight 4:26 AM EDT 8:56 PM EDT
Moon 3:29 AM EDT (4/5) 2:19 PM EDT (4/5)
Length of Visible Light 14h 01m
Length of Day
13h 01m
Waning Crescent, 24% of the Moon is Illuminated
Apr 5
Waning Crescent
Apr 10
New
Apr 18
First Quarter
Apr 25
Full
May 2
Last Quarter

Hourly Weather History & Observations

Time (EDT) Temp. Windchill Dew Point Humidity Pressure Visibility Wind Dir Wind Speed Gust Speed Precip Events Conditions
12:56 AM 30.9 °F - 14.0 °F 50% 29.88 in - Calm Calm - N/A   Unknown
1:56 AM 30.0 °F - 15.1 °F 54% 29.81 in - Calm Calm - N/A   Unknown
2:56 AM 30.0 °F - 15.1 °F 54% 29.83 in - Calm Calm - N/A   Unknown
3:56 AM 32.0 °F 28.7 °F 14.0 °F 48% 29.82 in - SE 3.5 mph - N/A   Unknown
4:56 AM 30.9 °F 26.2 °F 17.1 °F 57% 29.81 in - SE 4.6 mph - N/A   Unknown
5:56 AM 30.0 °F - 19.9 °F 66% 29.81 in - Calm Calm - N/A   Unknown
6:56 AM 32.0 °F - 19.0 °F 59% 29.79 in - Calm Calm - N/A   Unknown
7:56 AM 34.0 °F - 18.0 °F 52% 29.78 in - Calm Calm - N/A   Unknown
8:56 AM 34.0 °F - 19.9 °F 56% 29.76 in - Calm Calm - N/A   Unknown
9:56 AM 41.0 °F 38.0 °F 19.0 °F 41% 29.73 in - Variable 4.6 mph - N/A   Unknown
10:56 AM 46.0 °F 44.8 °F 16.0 °F 30% 29.71 in - Variable 3.5 mph - N/A   Unknown
11:56 AM 46.9 °F - 16.0 °F 29% 29.70 in - Variable 3.5 mph - N/A   Unknown
12:56 PM 43.0 °F 36.4 °F 21.0 °F 42% 29.70 in - NW 12.7 mph 17.3 mph N/A   Unknown
1:56 PM 42.1 °F - 25.0 °F 51% 29.69 in - Calm Calm - N/A   Unknown
2:56 PM 41.0 °F 38.0 °F 27.0 °F 57% 29.69 in - Variable 4.6 mph - N/A   Unknown
3:56 PM 45.0 °F 41.2 °F 21.9 °F 40% 29.66 in - Variable 6.9 mph - N/A   Unknown
4:56 PM 39.9 °F 35.8 °F 21.0 °F 47% 29.67 in - Variable 5.8 mph - N/A   Unknown
5:56 PM 37.0 °F 32.4 °F 25.0 °F 62% 29.69 in - Variable 5.8 mph - N/A   Unknown
6:56 PM 34.0 °F 28.0 °F 26.1 °F 73% 29.71 in - NW 6.9 mph 17.3 mph N/A   Unknown
7:56 PM 32.0 °F 22.5 °F 26.1 °F 79% 29.72 in - NW 12.7 mph 26.5 mph N/A   Unknown
8:56 PM 30.9 °F 22.8 °F 25.0 °F 79% 29.75 in - NW 9.2 mph 19.6 mph N/A   Unknown
9:56 PM 30.0 °F 20.5 °F 18.0 °F 61% 29.75 in - NW 11.5 mph 23.0 mph N/A   Unknown
10:56 PM 28.0 °F 20.0 °F 18.0 °F 66% 29.74 in - NW 8.1 mph 23.0 mph N/A   Unknown
11:56 PM 26.1 °F 16.2 °F 17.1 °F 69% 29.75 in - NW 10.4 mph 19.6 mph N/A   Unknown